Time,TemperatureF,DewpointF,PressureIn,WindDirection,WindDirectionDegrees,WindSpeedMPH,WindSpeedGustMPH,Humidity,HourlyPrecipIn,Conditions,Clouds,dailyrainin,SoftwareType,DateUTC
2013-01-12 00:05:00,12.4,2.5,30.06,SW,225,0.0,1.0,64,0.00,,,0.00,Wunderground v.1.15,2013-01-12 07:05:00,
2013-01-12 00:11:00,12.7,2.5,30.06,SW,225,0.0,1.0,63,0.00,,,0.00,Wunderground v.1.15,2013-01-12 07:11:00,
2013-01-12 00:17:00,12.2,1.7,30.06,SW,225,1.0,1.0,62,0.00,,,0.00,Wunderground v.1.15,2013-01-12 07:17:00,
2013-01-12 00:23:00,11.2,1.0,30.06,SW,225,1.0,2.0,63,0.00,,,0.00,Wunderground v.1.15,2013-01-12 07:23:00,
2013-01-12 00:28:00,11.1,1.3,30.07,SW,224,4.0,4.0,64,0.00,,,0.00,Wunderground v.1.15,2013-01-12 07:28:00,
2013-01-12 00:34:00,11.9,1.7,30.07,SW,224,0.0,1.0,63,0.00,,,0.00,Wunderground v.1.15,2013-01-12 07:34:00,
2013-01-12 00:40:00,12.3,1.4,30.07,SW,224,0.0,1.0,61,0.00,,,0.00,Wunderground v.1.15,2013-01-12 07:40:00,
2013-01-12 00:46:00,12.4,1.5,30.07,WSW,257,0.0,3.0,61,0.00,,,0.00,Wunderground v.1.15,2013-01-12 07:46:00,
2013-01-12 00:51:00,12.7,1.4,30.07,WSW,257,0.0,3.0,60,0.00,,,0.00,Wunderground v.1.15,2013-01-12 07:51:00,
2013-01-12 00:57:00,12.3,1.0,30.07,North,355,0.0,0.0,60,0.00,,,0.00,Wunderground v.1.15,2013-01-12 07:57:00,
2013-01-12 01:03:00,11.7,0.8,30.07,North,355,0.0,0.0,61,0.00,,,0.00,Wunderground v.1.15,2013-01-12 08:03:00,
2013-01-12 01:09:00,10.7,0.6,30.07,North,355,0.0,1.0,63,0.00,,,0.00,Wunderground v.1.15,2013-01-12 08:09:00,
2013-01-12 01:15:00,10.1,0.7,30.08,North,355,0.0,2.0,65,0.00,,,0.00,Wunderground v.1.15,2013-01-12 08:15:00,
2013-01-12 01:21:00,9.9,0.1,30.08,North,355,0.0,1.0,64,0.00,,,0.00,Wunderground v.1.15,2013-01-12 08:21:00,
2013-01-12 01:27:00,9.1,0.0,30.08,North,355,0.0,2.0,66,0.00,,,0.00,Wunderground v.1.15,2013-01-12 08:27:00,
2013-01-12 01:33:00,8.9,-0.2,30.08,North,355,0.0,0.0,66,0.00,,,0.00,Wunderground v.1.15,2013-01-12 08:33:00,
2013-01-12 01:38:00,8.4,-0.3,30.08,North,355,0.0,0.0,67,0.00,,,0.00,Wunderground v.1.15,2013-01-12 08:38:00,
2013-01-12 01:44:00,8.2,-0.2,30.09,North,355,0.0,1.0,68,0.00,,,0.00,Wunderground v.1.15,2013-01-12 08:44:00,
2013-01-12 01:50:00,7.9,-0.5,30.09,North,355,2.0,2.0,68,0.00,,,0.00,Wunderground v.1.15,2013-01-12 08:50:00,
2013-01-12 01:56:00,7.6,-0.5,30.09,North,355,0.0,2.0,69,0.00,,,0.00,Wunderground v.1.15,2013-01-12 08:56:00,
2013-01-12 02:01:00,7.0,-1.3,30.10,North,355,0.0,0.0,68,0.00,,,0.00,Wunderground v.1.15,2013-01-12 09:01:00,
2013-01-12 02:06:00,6.2,-1.8,30.10,North,355,0.0,2.0,69,0.00,,,0.00,Wunderground v.1.15,2013-01-12 09:06:00,
2013-01-12 02:12:00,5.6,-2.1,30.10,North,355,0.0,0.0,70,0.00,,,0.00,Wunderground v.1.15,2013-01-12 09:12:00,
2013-01-12 02:17:00,5.1,-2.3,30.10,North,355,0.0,0.0,71,0.00,,,0.00,Wunderground v.1.15,2013-01-12 09:17:00,
2013-01-12 02:22:00,5.1,-2.0,30.10,North,355,0.0,0.0,72,0.00,,,0.00,Wunderground v.1.15,2013-01-12 09:22:00,
2013-01-12 02:27:00,4.7,-2.6,30.10,North,355,0.0,0.0,71,0.00,,,0.00,Wunderground v.1.15,2013-01-12 09:27:00,
2013-01-12 02:33:00,4.7,-2.1,30.10,North,355,1.0,1.0,73,0.00,,,0.00,Wunderground v.1.15,2013-01-12 09:33:00,
2013-01-12 02:38:00,5.0,-1.8,30.10,North,355,0.0,1.0,73,0.00,,,0.00,Wunderground v.1.15,2013-01-12 09:38:00,
2013-01-12 02:44:00,5.1,-1.7,30.11,North,355,0.0,2.0,73,0.00,,,0.00,Wunderground v.1.15,2013-01-12 09:44:00,
2013-01-12 02:51:00,5.8,-0.4,30.11,North,350,0.0,0.0,75,0.00,,,0.00,Wunderground v.1.15,2013-01-12 09:51:00,
2013-01-12 02:56:00,6.7,0.2,30.11,NW,323,0.0,2.0,74,0.00,,,0.00,Wunderground v.1.15,2013-01-12 09:56:00,
2013-01-12 03:02:00,7.0,-0.1,30.11,NW,323,0.0,0.0,72,0.00,,,0.00,Wunderground v.1.15,2013-01-12 10:02:00,
2013-01-12 03:09:00,6.6,-1.1,30.11,NW,323,0.0,0.0,70,0.00,,,0.00,Wunderground v.1.15,2013-01-12 10:09:00,
2013-01-12 03:14:00,5.9,-2.1,30.11,NW,323,0.0,0.0,69,0.00,,,0.00,Wunderground v.1.15,2013-01-12 10:14:00,
2013-01-12 03:20:00,4.9,-2.7,30.11,NW,325,0.0,1.0,70,0.00,,,0.00,Wunderground v.1.15,2013-01-12 10:20:00,
2013-01-12 03:25:00,4.1,-2.9,30.11,NW,325,2.0,2.0,72,0.00,,,0.00,Wunderground v.1.15,2013-01-12 10:25:00,
2013-01-12 03:30:00,4.0,-2.4,30.10,NW,325,0.0,0.0,74,0.00,,,0.00,Wunderground v.1.15,2013-01-12 10:30:00,
2013-01-12 03:36:00,3.6,-3.1,30.10,NW,325,0.0,0.0,73,0.00,,,0.00,Wunderground v.1.15,2013-01-12 10:36:00,
2013-01-12 03:41:00,2.9,-3.5,30.10,NW,325,0.0,0.0,74,0.00,,,0.00,Wunderground v.1.15,2013-01-12 10:41:00,
2013-01-12 03:46:00,2.3,-4.1,30.10,NW,325,2.0,2.0,74,0.00,,,0.00,Wunderground v.1.15,2013-01-12 10:46:00,
2013-01-12 03:51:00,1.7,-4.4,30.10,NW,325,0.0,0.0,75,0.00,,,0.00,Wunderground v.1.15,2013-01-12 10:51:00,
2013-01-12 03:57:00,1.5,-4.3,30.10,NW,325,0.0,0.0,76,0.00,,,0.00,Wunderground v.1.15,2013-01-12 10:57:00,
2013-01-12 04:02:00,1.7,-3.8,30.10,NW,325,0.0,0.0,77,0.00,,,0.00,Wunderground v.1.15,2013-01-12 11:02:00,
2013-01-12 04:07:00,1.6,-4.2,30.10,NW,325,0.0,0.0,76,0.00,,,0.00,Wunderground v.1.15,2013-01-12 11:07:00,
2013-01-12 04:12:00,1.2,-4.6,30.10,NW,325,1.0,1.0,76,0.00,,,0.00,Wunderground v.1.15,2013-01-12 11:12:00,
2013-01-12 04:18:00,1.2,-4.3,30.10,NW,325,0.0,2.0,77,0.00,,,0.00,Wunderground v.1.15,2013-01-12 11:18:00,
2013-01-12 04:23:00,1.4,-4.1,30.10,NW,325,0.0,1.0,77,0.00,,,0.00,Wunderground v.1.15,2013-01-12 11:23:00,
2013-01-12 04:28:00,1.3,-4.2,30.10,NW,325,0.0,1.0,77,0.00,,,0.00,Wunderground v.1.15,2013-01-12 11:28:00,
2013-01-12 04:33:00,1.1,-4.7,30.10,NW,325,0.0,0.0,76,0.00,,,0.00,Wunderground v.1.15,2013-01-12 11:33:00,
2013-01-12 04:38:00,0.9,-4.6,30.10,NW,325,0.0,0.0,77,0.00,,,0.00,Wunderground v.1.15,2013-01-12 11:38:00,
2013-01-12 04:44:00,0.6,-4.9,30.10,NW,325,0.0,0.0,77,0.00,,,0.00,Wunderground v.1.15,2013-01-12 11:44:00,
2013-01-12 04:51:00,0.5,-5.0,30.11,NW,325,0.0,0.0,77,0.00,,,0.00,Wunderground v.1.15,2013-01-12 11:51:00,
2013-01-12 04:56:00,0.7,-4.6,30.11,NW,325,2.0,2.0,78,0.00,,,0.00,Wunderground v.1.15,2013-01-12 11:56:00,
2013-01-12 05:01:00,0.9,-4.4,30.11,NW,325,0.0,0.0,78,0.00,,,0.00,Wunderground v.1.15,2013-01-12 12:01:00,
2013-01-12 05:07:00,0.7,-4.6,30.11,NW,325,1.0,1.0,78,0.00,,,0.00,Wunderground v.1.15,2013-01-12 12:07:00,
2013-01-12 05:12:00,0.6,-4.4,30.12,NW,325,1.0,1.0,79,0.00,,,0.00,Wunderground v.1.15,2013-01-12 12:12:00,
2013-01-12 05:18:00,0.4,-4.8,30.12,NW,325,0.0,2.0,78,0.00,,,0.00,Wunderground v.1.15,2013-01-12 12:18:00,
2013-01-12 05:24:00,0.1,-5.1,30.12,NW,325,0.0,0.0,78,0.00,,,0.00,Wunderground v.1.15,2013-01-12 12:24:00,
2013-01-12 05:30:00,0.0,-5.2,30.13,NW,325,1.0,1.0,78,0.00,,,0.00,Wunderground v.1.15,2013-01-12 12:30:00,
2013-01-12 05:35:00,0.1,-4.9,30.13,NW,325,0.0,3.0,79,0.00,,,0.00,Wunderground v.1.15,2013-01-12 12:35:00,
2013-01-12 05:40:00,-0.1,-5.3,30.13,NW,325,0.0,0.0,78,0.00,,,0.00,Wunderground v.1.15,2013-01-12 12:40:00,
2013-01-12 05:45:00,-0.4,-5.6,30.14,NW,325,0.0,2.0,78,0.00,,,0.00,Wunderground v.1.15,2013-01-12 12:45:00,
2013-01-12 05:51:00,-0.2,-5.2,30.14,NW,325,0.0,0.0,79,0.00,,,0.00,Wunderground v.1.15,2013-01-12 12:51:00,
2013-01-12 05:56:00,-0.4,-5.4,30.15,NW,325,0.0,0.0,79,0.00,,,0.00,Wunderground v.1.15,2013-01-12 12:56:00,
2013-01-12 06:02:00,-0.4,-5.4,30.15,NW,325,2.0,2.0,79,0.00,,,0.00,Wunderground v.1.15,2013-01-12 13:02:00,
2013-01-12 06:07:00,0.0,-4.7,30.15,NNW,331,2.0,3.0,80,0.00,,,0.00,Wunderground v.1.15,2013-01-12 13:07:00,
2013-01-12 06:12:00,1.7,-2.8,30.15,NNW,332,0.0,2.0,81,0.00,,,0.00,Wunderground v.1.15,2013-01-12 13:12:00,
2013-01-12 06:17:00,2.6,-1.9,30.15,NNW,332,1.0,2.0,81,0.00,,,0.00,Wunderground v.1.15,2013-01-12 13:17:00,
2013-01-12 06:22:00,2.8,-1.7,30.16,NNW,332,0.0,0.0,81,0.00,,,0.00,Wunderground v.1.15,2013-01-12 13:22:00,
2013-01-12 06:28:00,3.0,-1.8,30.16,NNW,332,1.0,1.0,80,0.00,,,0.00,Wunderground v.1.15,2013-01-12 13:28:00,
2013-01-12 06:34:00,3.6,-1.2,30.16,NNW,332,0.0,2.0,80,0.00,,,0.00,Wunderground v.1.15,2013-01-12 13:34:00,
2013-01-12 06:39:00,3.5,-1.8,30.17,NNW,332,0.0,2.0,78,0.00,,,0.00,Wunderground v.1.15,2013-01-12 13:39:00,
2013-01-12 06:44:00,3.4,-1.9,30.17,NNW,332,2.0,2.0,78,0.00,,,0.00,Wunderground v.1.15,2013-01-12 13:44:00,
2013-01-12 06:49:00,3.3,-2.3,30.17,NNW,332,0.0,2.0,77,0.00,,,0.00,Wunderground v.1.15,2013-01-12 13:49:00,
2013-01-12 06:55:00,2.8,-3.1,30.18,NNW,332,0.0,1.0,76,0.00,,,0.00,Wunderground v.1.15,2013-01-12 13:55:00,
2013-01-12 07:00:00,2.2,-3.6,30.19,NNW,332,0.0,0.0,76,0.00,,,0.00,Wunderground v.1.15,2013-01-12 14:00:00,
2013-01-12 07:06:00,1.4,-4.7,30.19,NNW,332,0.0,0.0,75,0.00,,,0.00,Wunderground v.1.15,2013-01-12 14:06:00,
2013-01-12 07:11:00,1.0,-4.8,30.19,NNW,332,0.0,0.0,76,0.00,,,0.00,Wunderground v.1.15,2013-01-12 14:11:00,
2013-01-12 07:17:00,0.5,-5.0,30.19,NNW,332,0.0,2.0,77,0.00,,,0.00,Wunderground v.1.15,2013-01-12 14:17:00,
2013-01-12 07:22:00,0.3,-5.2,30.20,NNW,332,0.0,0.0,77,0.00,,,0.00,Wunderground v.1.15,2013-01-12 14:22:00,
2013-01-12 07:27:00,0.1,-5.4,30.20,NNW,332,0.0,2.0,77,0.00,,,0.00,Wunderground v.1.15,2013-01-12 14:27:00,
2013-01-12 07:33:00,-0.4,-5.9,30.20,NNW,332,0.0,1.0,77,0.00,,,0.00,Wunderground v.1.15,2013-01-12 14:33:00,
2013-01-12 07:39:00,-0.8,-6.3,30.20,NNW,332,0.0,1.0,77,0.00,,,0.00,Wunderground v.1.15,2013-01-12 14:39:00,
2013-01-12 07:44:00,-0.9,-6.1,30.21,NNW,332,0.0,2.0,78,0.00,,,0.00,Wunderground v.1.15,2013-01-12 14:44:00,
2013-01-12 07:49:00,-0.9,-6.1,30.21,NNW,332,0.0,2.0,78,0.00,,,0.00,Wunderground v.1.15,2013-01-12 14:49:00,
2013-01-12 07:54:00,-0.8,-5.7,30.21,NNW,332,1.0,2.0,79,0.00,,,0.00,Wunderground v.1.15,2013-01-12 14:54:00,
2013-01-12 07:59:00,-0.3,-5.3,30.21,NNW,332,0.0,2.0,79,0.00,,,0.00,Wunderground v.1.15,2013-01-12 14:59:00,
2013-01-12 08:04:00,0.0,-4.7,30.22,NNW,332,0.0,0.0,80,0.00,,,0.00,Wunderground v.1.15,2013-01-12 15:04:00,
2013-01-12 08:10:00,-0.1,-5.1,30.22,NNW,332,0.0,0.0,79,0.00,,,0.00,Wunderground v.1.15,2013-01-12 15:10:00,
2013-01-12 08:16:00,-0.5,-5.5,30.23,NNW,332,0.0,0.0,79,0.00,,,0.00,Wunderground v.1.15,2013-01-12 15:16:00,
2013-01-12 08:21:00,-0.7,-5.7,30.23,NNW,332,0.0,0.0,79,0.00,,,0.00,Wunderground v.1.15,2013-01-12 15:21:00,
2013-01-12 08:26:00,0.5,-4.0,30.24,NNW,332,0.0,2.0,81,0.00,,,0.00,Wunderground v.1.15,2013-01-12 15:26:00,
2013-01-12 08:32:00,1.3,-3.2,30.24,NNW,332,0.0,1.0,81,0.00,,,0.00,Wunderground v.1.15,2013-01-12 15:32:00,
2013-01-12 08:37:00,1.7,-3.0,30.24,NNW,332,0.0,1.0,80,0.00,,,0.00,Wunderground v.1.15,2013-01-12 15:37:00,
2013-01-12 08:42:00,2.1,-2.7,30.25,NNW,332,0.0,0.0,80,0.00,,,0.00,Wunderground v.1.15,2013-01-12 15:42:00,
2013-01-12 08:48:00,2.8,-2.0,30.26,NNW,332,3.0,3.0,80,0.00,,,0.00,Wunderground v.1.15,2013-01-12 15:48:00,
2013-01-12 08:53:00,3.2,-1.6,30.26,NNW,331,4.0,5.0,80,0.00,,,0.00,Wunderground v.1.15,2013-01-12 15:53:00,
2013-01-12 08:58:00,3.9,-0.9,30.26,NNW,331,2.0,5.0,80,0.00,,,0.00,Wunderground v.1.15,2013-01-12 15:58:00,
2013-01-12 09:03:00,5.1,0.3,30.26,NNW,331,0.0,2.0,80,0.00,,,0.00,Wunderground v.1.15,2013-01-12 16:03:00,
2013-01-12 09:08:00,6.3,1.4,30.26,NNW,331,0.0,2.0,80,0.00,,,0.00,Wunderground v.1.15,2013-01-12 16:08:00,
2013-01-12 09:14:00,7.8,2.6,30.26,NNW,331,2.0,2.0,79,0.00,,,0.00,Wunderground v.1.15,2013-01-12 16:14:00,
2013-01-12 09:21:00,8.1,1.8,30.26,NNW,338,0.0,2.0,75,0.00,,,0.00,Wunderground v.1.15,2013-01-12 16:21:00,
2013-01-12 09:27:00,8.3,2.0,30.27,NNW,338,1.0,2.0,75,0.00,,,0.00,Wunderground v.1.15,2013-01-12 16:27:00,
2013-01-12 09:32:00,8.6,1.4,30.27,NNW,338,1.0,3.0,72,0.00,,,0.00,Wunderground v.1.15,2013-01-12 16:32:00,
2013-01-12 09:39:00,8.2,0.4,30.27,NNW,338,0.0,3.0,70,0.00,,,0.00,Wunderground v.1.15,2013-01-12 16:39:00,
2013-01-12 09:44:00,7.7,-0.1,30.27,NNW,338,1.0,2.0,70,0.00,,,0.00,Wunderground v.1.15,2013-01-12 16:44:00,
2013-01-12 09:49:00,7.9,0.4,30.27,NNW,338,0.0,2.0,71,0.00,,,0.00,Wunderground v.1.15,2013-01-12 16:49:00,
2013-01-12 09:54:00,8.1,0.3,30.28,NNW,338,0.0,1.0,70,0.00,,,0.00,Wunderground v.1.15,2013-01-12 16:54:00,
2013-01-12 10:00:00,8.1,-0.3,30.28,NNW,338,1.0,1.0,68,0.00,,,0.00,Wunderground v.1.15,2013-01-12 17:00:00,
2013-01-12 10:06:00,8.0,-0.4,30.28,NNW,338,0.0,2.0,68,0.00,,,0.00,Wunderground v.1.15,2013-01-12 17:06:00,
2013-01-12 10:11:00,9.1,1.3,30.28,NNW,338,0.0,0.0,70,0.00,,,0.00,Wunderground v.1.15,2013-01-12 17:11:00,
2013-01-12 10:16:00,10.8,2.3,30.28,NNW,338,0.0,0.0,68,0.00,,,0.00,Wunderground v.1.15,2013-01-12 17:16:00,
2013-01-12 10:22:00,11.9,2.7,30.28,NNW,338,0.0,0.0,66,0.00,,,0.00,Wunderground v.1.15,2013-01-12 17:22:00,
2013-01-12 10:27:00,12.1,2.6,30.28,NNW,338,0.0,1.0,65,0.00,,,0.00,Wunderground v.1.15,2013-01-12 17:27:00,
2013-01-12 10:32:00,11.9,2.4,30.28,NNW,338,2.0,2.0,65,0.00,,,0.00,Wunderground v.1.15,2013-01-12 17:32:00,
2013-01-12 10:37:00,12.1,2.6,30.27,NNW,338,0.0,2.0,65,0.00,,,0.00,Wunderground v.1.15,2013-01-12 17:37:00,
2013-01-12 10:42:00,12.7,2.8,30.27,NNW,338,1.0,2.0,64,0.00,,,0.00,Wunderground v.1.15,2013-01-12 17:42:00,
2013-01-12 10:47:00,13.2,2.9,30.27,NNW,338,0.0,2.0,63,0.00,,,0.00,Wunderground v.1.15,2013-01-12 17:47:00,
2013-01-12 10:53:00,13.6,3.0,30.27,NNW,338,2.0,2.0,62,0.00,,,0.00,Wunderground v.1.15,2013-01-12 17:53:00,
2013-01-12 10:58:00,13.8,3.2,30.27,NNW,338,1.0,3.0,62,0.00,,,0.00,Wunderground v.1.15,2013-01-12 17:58:00,
2013-01-12 11:03:00,13.8,3.2,30.27,NNW,338,2.0,3.0,62,0.00,,,0.00,Wunderground v.1.15,2013-01-12 18:03:00,
2013-01-12 11:09:00,13.9,2.9,30.27,NNW,338,3.0,4.0,61,0.00,,,0.00,Wunderground v.1.15,2013-01-12 18:09:00,
2013-01-12 11:15:00,13.4,2.4,30.26,NNW,338,2.0,5.0,61,0.00,,,0.00,Wunderground v.1.15,2013-01-12 18:15:00,
2013-01-12 11:20:00,13.2,2.6,30.26,NNW,338,3.0,3.0,62,0.00,,,0.00,Wunderground v.1.15,2013-01-12 18:20:00,
2013-01-12 11:26:00,12.8,2.6,30.26,NNW,338,4.0,4.0,63,0.00,,,0.00,Wunderground v.1.15,2013-01-12 18:26:00,
2013-01-12 11:31:00,12.6,2.4,30.26,NNW,338,2.0,3.0,63,0.00,,,0.00,Wunderground v.1.15,2013-01-12 18:31:00,
2013-01-12 11:37:00,12.7,2.5,30.26,NNW,338,1.0,4.0,63,0.00,,,0.00,Wunderground v.1.15,2013-01-12 18:37:00,
2013-01-12 11:43:00,12.5,2.3,30.25,NW,317,6.0,6.0,63,0.00,,,0.00,Wunderground v.1.15,2013-01-12 18:43:00,
2013-01-12 11:48:00,12.3,2.4,30.25,NW,309,3.0,6.0,64,0.00,,,0.00,Wunderground v.1.15,2013-01-12 18:48:00,
2013-01-12 11:53:00,12.6,2.7,30.25,NW,317,1.0,4.0,64,0.00,,,0.00,Wunderground v.1.15,2013-01-12 18:53:00,
2013-01-12 11:59:00,12.8,2.9,30.25,NW,315,4.0,6.0,64,0.00,,,0.00,Wunderground v.1.15,2013-01-12 18:59:00,
2013-01-12 12:05:00,12.9,3.0,30.25,NW,318,3.0,4.0,64,0.00,,,0.00,Wunderground v.1.15,2013-01-12 19:05:00,
2013-01-12 12:11:00,12.8,2.9,30.25,NW,314,4.0,4.0,64,0.00,,,0.00,Wunderground v.1.15,2013-01-12 19:11:00,
2013-01-12 12:16:00,13.0,3.1,30.25,NW,313,1.0,7.0,64,0.00,,,0.00,Wunderground v.1.15,2013-01-12 19:16:00,
2013-01-12 12:23:00,13.3,3.0,30.25,NW,315,3.0,4.0,63,0.00,,,0.00,Wunderground v.1.15,2013-01-12 19:23:00,
2013-01-12 12:28:00,13.2,2.9,30.24,NW,314,5.0,6.0,63,0.00,,,0.00,Wunderground v.1.15,2013-01-12 19:28:00,
2013-01-12 12:33:00,13.1,2.9,30.24,NW,313,3.0,5.0,63,0.00,,,0.00,Wunderground v.1.15,2013-01-12 19:33:00,
2013-01-12 12:38:00,13.5,3.2,30.24,NW,314,5.0,6.0,63,0.00,,,0.00,Wunderground v.1.15,2013-01-12 19:38:00,
2013-01-12 12:43:00,14.0,3.7,30.24,NW,314,3.0,5.0,63,0.00,,,0.00,Wunderground v.1.15,2013-01-12 19:43:00,
2013-01-12 12:49:00,14.4,4.1,30.24,NW,314,1.0,5.0,63,0.00,,,0.00,Wunderground v.1.15,2013-01-12 19:49:00,
2013-01-12 12:54:00,15.1,4.4,30.23,NW,314,0.0,4.0,62,0.00,,,0.00,Wunderground v.1.15,2013-01-12 19:54:00,
2013-01-12 13:00:00,15.3,4.2,30.23,NW,314,4.0,4.0,61,0.00,,,0.00,Wunderground v.1.15,2013-01-12 20:00:00,
2013-01-12 13:05:00,15.2,4.1,30.24,NW,314,0.0,5.0,61,0.00,,,0.00,Wunderground v.1.15,2013-01-12 20:05:00,
2013-01-12 13:10:00,15.5,4.4,30.24,NW,314,4.0,4.0,61,0.00,,,0.00,Wunderground v.1.15,2013-01-12 20:10:00,
2013-01-12 13:15:00,15.7,4.3,30.23,NW,314,2.0,4.0,60,0.00,,,0.00,Wunderground v.1.15,2013-01-12 20:15:00,
2013-01-12 13:21:00,16.3,4.5,30.23,NW,314,0.0,2.0,59,0.00,,,0.00,Wunderground v.1.15,2013-01-12 20:21:00,
2013-01-12 13:26:00,16.8,4.9,30.23,NW,314,2.0,3.0,59,0.00,,,0.00,Wunderground v.1.15,2013-01-12 20:26:00,
2013-01-12 13:32:00,17.4,4.7,30.23,NW,314,2.0,2.0,57,0.00,,,0.00,Wunderground v.1.15,2013-01-12 20:32:00,
2013-01-12 13:37:00,17.4,4.7,30.23,NW,314,3.0,3.0,57,0.00,,,0.00,Wunderground v.1.15,2013-01-12 20:37:00,
2013-01-12 13:42:00,17.2,4.6,30.23,NW,314,1.0,4.0,57,0.00,,,0.00,Wunderground v.1.15,2013-01-12 20:42:00,
2013-01-12 13:49:00,17.7,5.0,30.23,NW,314,2.0,4.0,57,0.00,,,0.00,Wunderground v.1.15,2013-01-12 20:49:00,
2013-01-12 13:55:00,18.2,5.5,30.23,NW,314,2.0,2.0,57,0.00,,,0.00,Wunderground v.1.15,2013-01-12 20:55:00,
2013-01-12 14:00:00,18.6,5.1,30.23,NW,314,2.0,2.0,55,0.00,,,0.00,Wunderground v.1.15,2013-01-12 21:00:00,
2013-01-12 14:06:00,18.7,4.8,30.23,NW,314,0.0,2.0,54,0.00,,,0.00,Wunderground v.1.15,2013-01-12 21:06:00,
2013-01-12 14:11:00,18.9,4.6,30.23,NW,314,0.0,1.0,53,0.00,,,0.00,Wunderground v.1.15,2013-01-12 21:11:00,
2013-01-12 14:17:00,19.0,5.1,30.23,NW,314,0.0,2.0,54,0.00,,,0.00,Wunderground v.1.15,2013-01-12 21:17:00,
2013-01-12 14:22:00,19.3,4.9,30.24,NW,314,2.0,3.0,53,0.00,,,0.00,Wunderground v.1.15,2013-01-12 21:22:00,
2013-01-12 14:28:00,19.3,5.3,30.24,NW,314,0.0,3.0,54,0.00,,,0.00,Wunderground v.1.15,2013-01-12 21:28:00,
2013-01-12 14:33:00,19.5,5.1,30.24,NW,314,0.0,3.0,53,0.00,,,0.00,Wunderground v.1.15,2013-01-12 21:33:00,
2013-01-12 14:38:00,19.5,5.1,30.24,NW,314,1.0,3.0,53,0.00,,,0.00,Wunderground v.1.15,2013-01-12 21:38:00,
2013-01-12 14:44:00,19.7,5.3,30.24,NW,314,1.0,2.0,53,0.00,,,0.00,Wunderground v.1.15,2013-01-12 21:44:00,
2013-01-12 14:49:00,19.7,4.9,30.24,NW,314,1.0,2.0,52,0.00,,,0.00,Wunderground v.1.15,2013-01-12 21:49:00,
2013-01-12 14:56:00,19.6,4.8,30.24,NW,314,1.0,3.0,52,0.00,,,0.00,Wunderground v.1.15,2013-01-12 21:56:00,
2013-01-12 15:01:00,19.1,4.8,30.25,NW,314,1.0,2.0,53,0.00,,,0.00,Wunderground v.1.15,2013-01-12 22:01:00,
2013-01-12 15:06:00,18.7,4.4,30.25,NW,314,1.0,4.0,53,0.00,,,0.00,Wunderground v.1.15,2013-01-12 22:06:00,
2013-01-12 15:11:00,18.5,4.6,30.25,NW,314,1.0,2.0,54,0.00,,,0.00,Wunderground v.1.15,2013-01-12 22:11:00,
2013-01-12 15:16:00,18.6,4.7,30.25,NW,314,0.0,2.0,54,0.00,,,0.00,Wunderground v.1.15,2013-01-12 22:16:00,
2013-01-12 15:22:00,18.5,4.6,30.25,NW,314,1.0,1.0,54,0.00,,,0.00,Wunderground v.1.15,2013-01-12 22:22:00,
2013-01-12 15:27:00,18.5,4.6,30.25,NW,314,1.0,2.0,54,0.00,,,0.00,Wunderground v.1.15,2013-01-12 22:27:00,
2013-01-12 15:32:00,18.5,4.6,30.25,NW,314,0.0,2.0,54,0.00,,,0.00,Wunderground v.1.15,2013-01-12 22:32:00,
2013-01-12 15:37:00,18.5,5.0,30.25,NW,314,0.0,3.0,55,0.00,,,0.00,Wunderground v.1.15,2013-01-12 22:37:00,
2013-01-12 15:43:00,18.5,5.0,30.25,NW,314,1.0,4.0,55,0.00,,,0.00,Wunderground v.1.15,2013-01-12 22:43:00,
2013-01-12 15:48:00,18.3,4.8,30.25,NW,314,2.0,4.0,55,0.00,,,0.00,Wunderground v.1.15,2013-01-12 22:48:00,
2013-01-12 15:54:00,17.8,4.3,30.25,NW,314,1.0,2.0,55,0.00,,,0.00,Wunderground v.1.15,2013-01-12 22:54:00,
2013-01-12 16:00:00,17.8,4.7,30.25,NW,314,0.0,2.0,56,0.00,,,0.00,Wunderground v.1.15,2013-01-12 23:00:00,
2013-01-12 16:05:00,17.3,4.3,30.25,NW,314,2.0,4.0,56,0.00,,,0.00,Wunderground v.1.15,2013-01-12 23:05:00,
2013-01-12 16:10:00,16.4,3.8,30.25,NW,314,0.0,2.0,57,0.00,,,0.00,Wunderground v.1.15,2013-01-12 23:10:00,
2013-01-12 16:16:00,15.7,3.5,30.25,NW,314,2.0,3.0,58,0.00,,,0.00,Wunderground v.1.15,2013-01-12 23:16:00,
2013-01-12 16:21:00,15.2,3.4,30.25,NW,314,2.0,2.0,59,0.00,,,0.00,Wunderground v.1.15,2013-01-12 23:21:00,
2013-01-12 16:27:00,14.6,3.2,30.26,NW,314,1.0,2.0,60,0.00,,,0.00,Wunderground v.1.15,2013-01-12 23:27:00,
2013-01-12 16:32:00,14.2,3.2,30.26,NW,314,1.0,1.0,61,0.00,,,0.00,Wunderground v.1.15,2013-01-12 23:32:00,
2013-01-12 16:38:00,13.9,3.3,30.26,NW,314,1.0,2.0,62,0.00,,,0.00,Wunderground v.1.15,2013-01-12 23:38:00,
2013-01-12 16:43:00,13.8,3.2,30.26,NW,314,0.0,1.0,62,0.00,,,0.00,Wunderground v.1.15,2013-01-12 23:43:00,
2013-01-12 16:48:00,13.6,3.0,30.26,NW,314,0.0,1.0,62,0.00,,,0.00,Wunderground v.1.15,2013-01-12 23:48:00,
2013-01-12 16:53:00,13.4,2.8,30.26,NW,314,0.0,0.0,62,0.00,,,0.00,Wunderground v.1.15,2013-01-12 23:53:00,
2013-01-12 16:59:00,12.8,2.6,30.26,NW,314,0.0,0.0,63,0.00,,,0.00,Wunderground v.1.15,2013-01-12 23:59:00,
2013-01-12 17:04:00,12.2,2.0,30.26,NW,314,0.0,0.0,63,0.00,,,0.00,Wunderground v.1.15,2013-01-13 00:04:00,
2013-01-12 17:09:00,11.8,2.3,30.27,NW,314,0.0,1.0,65,0.00,,,0.00,Wunderground v.1.15,2013-01-13 00:09:00,
2013-01-12 17:14:00,12.3,3.1,30.27,NW,314,1.0,1.0,66,0.00,,,0.00,Wunderground v.1.15,2013-01-13 00:14:00,
2013-01-12 17:21:00,12.5,2.6,30.27,NW,314,0.0,0.0,64,0.00,,,0.00,Wunderground v.1.15,2013-01-13 00:21:00,
2013-01-12 17:26:00,11.8,2.0,30.27,NW,314,0.0,0.0,64,0.00,,,0.00,Wunderground v.1.15,2013-01-13 00:26:00,
2013-01-12 17:31:00,10.5,1.0,30.27,NW,314,0.0,0.0,65,0.00,,,0.00,Wunderground v.1.15,2013-01-13 00:31:00,
2013-01-12 17:37:00,9.8,1.0,30.27,NW,314,0.0,0.0,67,0.00,,,0.00,Wunderground v.1.15,2013-01-13 00:37:00,
2013-01-12 17:42:00,9.5,1.1,30.27,NW,314,1.0,1.0,68,0.00,,,0.00,Wunderground v.1.15,2013-01-13 00:42:00,
2013-01-12 17:47:00,9.1,0.7,30.27,NW,314,0.0,2.0,68,0.00,,,0.00,Wunderground v.1.15,2013-01-13 00:47:00,
2013-01-12 17:53:00,9.2,1.1,30.28,NW,314,0.0,1.0,69,0.00,,,0.00,Wunderground v.1.15,2013-01-13 00:53:00,
2013-01-12 17:58:00,8.9,0.5,30.28,NW,314,0.0,2.0,68,0.00,,,0.00,Wunderground v.1.15,2013-01-13 00:58:00,
2013-01-12 18:03:00,8.4,0.3,30.28,NW,314,0.0,2.0,69,0.00,,,0.00,Wunderground v.1.15,2013-01-13 01:03:00,
2013-01-12 18:08:00,8.6,0.8,30.28,NW,314,1.0,2.0,70,0.00,,,0.00,Wunderground v.1.15,2013-01-13 01:08:00,
2013-01-12 18:14:00,8.6,0.8,30.28,NW,314,2.0,2.0,70,0.00,,,0.00,Wunderground v.1.15,2013-01-13 01:14:00,
2013-01-12 18:19:00,8.6,0.8,30.28,NW,314,0.0,2.0,70,0.00,,,0.00,Wunderground v.1.15,2013-01-13 01:19:00,
2013-01-12 18:24:00,8.6,0.8,30.28,NW,314,0.0,2.0,70,0.00,,,0.00,Wunderground v.1.15,2013-01-13 01:24:00,
2013-01-12 18:29:00,8.3,0.5,30.28,NW,314,1.0,2.0,70,0.00,,,0.00,Wunderground v.1.15,2013-01-13 01:29:00,
2013-01-12 18:34:00,8.1,0.3,30.29,NW,314,0.0,2.0,70,0.00,,,0.00,Wunderground v.1.15,2013-01-13 01:34:00,
2013-01-12 18:40:00,7.7,0.2,30.28,NW,314,1.0,1.0,71,0.00,,,0.00,Wunderground v.1.15,2013-01-13 01:40:00,
2013-01-12 18:45:00,7.6,0.2,30.29,NW,314,1.0,2.0,71,0.00,,,0.00,Wunderground v.1.15,2013-01-13 01:45:00,
2013-01-12 18:50:00,7.4,0.0,30.28,NW,314,0.0,1.0,71,0.00,,,0.00,Wunderground v.1.15,2013-01-13 01:50:00,
2013-01-12 18:56:00,7.4,0.0,30.28,NW,314,0.0,2.0,71,0.00,,,0.00,Wunderground v.1.15,2013-01-13 01:56:00,
2013-01-12 19:01:00,7.0,-0.4,30.28,NW,314,0.0,0.0,71,0.00,,,0.00,Wunderground v.1.15,2013-01-13 02:01:00,
2013-01-12 19:06:00,6.8,-0.3,30.29,NW,314,0.0,0.0,72,0.00,,,0.00,Wunderground v.1.15,2013-01-13 02:06:00,
2013-01-12 19:11:00,7.1,0.3,30.29,NW,314,0.0,1.0,73,0.00,,,0.00,Wunderground v.1.15,2013-01-13 02:11:00,
2013-01-12 19:16:00,7.6,0.5,30.29,NW,314,0.0,1.0,72,0.00,,,0.00,Wunderground v.1.15,2013-01-13 02:16:00,
2013-01-12 19:21:00,7.7,0.2,30.29,NW,314,0.0,1.0,71,0.00,,,0.00,Wunderground v.1.15,2013-01-13 02:21:00,
2013-01-12 19:26:00,7.8,0.3,30.29,NW,314,0.0,2.0,71,0.00,,,0.00,Wunderground v.1.15,2013-01-13 02:26:00,
2013-01-12 19:32:00,8.3,1.1,30.30,NW,314,0.0,0.0,72,0.00,,,0.00,Wunderground v.1.15,2013-01-13 02:32:00,
2013-01-12 19:38:00,8.8,1.3,30.30,NW,314,0.0,1.0,71,0.00,,,0.00,Wunderground v.1.15,2013-01-13 02:38:00,
2013-01-12 19:43:00,8.6,1.1,30.30,NW,314,0.0,0.0,71,0.00,,,0.00,Wunderground v.1.15,2013-01-13 02:43:00,
2013-01-12 19:48:00,8.5,1.0,30.30,NW,314,1.0,1.0,71,0.00,,,0.00,Wunderground v.1.15,2013-01-13 02:48:00,
2013-01-12 19:53:00,8.2,0.7,30.30,NW,314,0.0,0.0,71,0.00,,,0.00,Wunderground v.1.15,2013-01-13 02:53:00,
2013-01-12 19:58:00,7.5,-0.2,30.30,NW,314,0.0,0.0,70,0.00,,,0.00,Wunderground v.1.15,2013-01-13 02:58:00,
2013-01-12 20:04:00,6.8,-0.9,30.30,NW,314,0.0,0.0,70,0.00,,,0.00,Wunderground v.1.15,2013-01-13 03:04:00,
2013-01-12 20:09:00,6.0,-1.4,30.30,NW,314,0.0,0.0,71,0.00,,,0.00,Wunderground v.1.15,2013-01-13 03:09:00,
2013-01-12 20:14:00,5.5,-1.6,30.30,NW,314,0.0,0.0,72,0.00,,,0.00,Wunderground v.1.15,2013-01-13 03:14:00,
2013-01-12 20:19:00,5.0,-2.1,30.30,NW,314,0.0,1.0,72,0.00,,,0.00,Wunderground v.1.15,2013-01-13 03:19:00,
2013-01-12 20:24:00,4.3,-2.4,30.31,NW,314,0.0,0.0,73,0.00,,,0.00,Wunderground v.1.15,2013-01-13 03:24:00,
2013-01-12 20:29:00,3.9,-2.5,30.31,NW,314,0.0,0.0,74,0.00,,,0.00,Wunderground v.1.15,2013-01-13 03:29:00,
2013-01-12 20:35:00,3.4,-3.0,30.31,NW,314,0.0,0.0,74,0.00,,,0.00,Wunderground v.1.15,2013-01-13 03:35:00,
2013-01-12 20:40:00,3.0,-3.1,30.31,NW,314,0.0,0.0,75,0.00,,,0.00,Wunderground v.1.15,2013-01-13 03:40:00,
2013-01-12 20:45:00,2.8,-3.1,30.31,NW,314,0.0,1.0,76,0.00,,,0.00,Wunderground v.1.15,2013-01-13 03:45:00,
2013-01-12 20:50:00,2.8,-3.1,30.32,NW,314,0.0,0.0,76,0.00,,,0.00,Wunderground v.1.15,2013-01-13 03:50:00,
2013-01-12 20:57:00,2.4,-3.4,30.31,NW,314,0.0,2.0,76,0.00,,,0.00,Wunderground v.1.15,2013-01-13 03:57:00,
2013-01-12 21:02:00,2.7,-2.6,30.32,NW,314,0.0,0.0,78,0.00,,,0.00,Wunderground v.1.15,2013-01-13 04:02:00,
2013-01-12 21:08:00,3.2,-2.1,30.32,NW,314,0.0,0.0,78,0.00,,,0.00,Wunderground v.1.15,2013-01-13 04:08:00,
2013-01-12 21:13:00,3.4,-1.9,30.32,NW,314,1.0,2.0,78,0.00,,,0.00,Wunderground v.1.15,2013-01-13 04:13:00,
2013-01-12 21:18:00,3.7,-1.6,30.32,NW,314,1.0,2.0,78,0.00,,,0.00,Wunderground v.1.15,2013-01-13 04:18:00,
2013-01-12 21:25:00,3.8,-1.5,30.32,NW,314,0.0,2.0,78,0.00,,,0.00,Wunderground v.1.15,2013-01-13 04:25:00,
2013-01-12 21:30:00,3.7,-1.9,30.32,NW,314,0.0,1.0,77,0.00,,,0.00,Wunderground v.1.15,2013-01-13 04:30:00,
2013-01-12 21:35:00,3.5,-2.1,30.33,NW,314,0.0,1.0,77,0.00,,,0.00,Wunderground v.1.15,2013-01-13 04:35:00,
2013-01-12 21:40:00,3.0,-2.9,30.33,NW,314,0.0,0.0,76,0.00,,,0.00,Wunderground v.1.15,2013-01-13 04:40:00,
2013-01-12 21:46:00,2.4,-3.2,30.33,NW,314,0.0,0.0,77,0.00,,,0.00,Wunderground v.1.15,2013-01-13 04:46:00,
2013-01-12 21:51:00,2.0,-3.6,30.33,NW,314,0.0,0.0,77,0.00,,,0.00,Wunderground v.1.15,2013-01-13 04:51:00,
2013-01-12 21:56:00,1.7,-3.8,30.33,NW,314,0.0,0.0,77,0.00,,,0.00,Wunderground v.1.15,2013-01-13 04:56:00,
2013-01-12 22:01:00,1.7,-3.6,30.33,NW,314,0.0,0.0,78,0.00,,,0.00,Wunderground v.1.15,2013-01-13 05:01:00,
2013-01-12 22:04:00,1.7,-3.6,30.33,NW,314,0.0,0.0,78,0.00,,,0.00,Wunderground v.1.15,2013-01-13 05:04:00,
2013-01-12 22:10:00,2.0,-3.0,30.33,NW,314,0.0,2.0,79,0.00,,,0.00,Wunderground v.1.15,2013-01-13 05:10:00,
2013-01-12 22:15:00,2.4,-2.6,30.33,NW,314,1.0,2.0,79,0.00,,,0.00,Wunderground v.1.15,2013-01-13 05:15:00,
2013-01-12 22:20:00,3.1,-1.9,30.34,NW,314,1.0,1.0,79,0.00,,,0.00,Wunderground v.1.15,2013-01-13 05:20:00,
2013-01-12 22:25:00,3.7,-1.4,30.33,NW,314,1.0,2.0,79,0.00,,,0.00,Wunderground v.1.15,2013-01-13 05:25:00,
2013-01-12 22:31:00,4.2,-0.9,30.34,NW,314,0.0,0.0,79,0.00,,,0.00,Wunderground v.1.15,2013-01-13 05:31:00,
2013-01-12 22:37:00,3.5,-2.4,30.34,NW,314,0.0,0.0,76,0.00,,,0.00,Wunderground v.1.15,2013-01-13 05:37:00,
2013-01-12 22:43:00,3.0,-2.9,30.34,NW,314,0.0,0.0,76,0.00,,,0.00,Wunderground v.1.15,2013-01-13 05:43:00,
2013-01-12 22:48:00,2.4,-3.7,30.35,NW,314,0.0,0.0,75,0.00,,,0.00,Wunderground v.1.15,2013-01-13 05:48:00,
2013-01-12 22:54:00,1.8,-4.3,30.35,NW,314,0.0,0.0,75,0.00,,,0.00,Wunderground v.1.15,2013-01-13 05:54:00,
2013-01-12 23:00:00,1.2,-4.9,30.35,NW,314,1.0,1.0,75,0.00,,,0.00,Wunderground v.1.15,2013-01-13 06:00:00,
2013-01-12 23:05:00,1.0,-4.8,30.35,NW,314,2.0,2.0,76,0.00,,,0.00,Wunderground v.1.15,2013-01-13 06:05:00,
2013-01-12 23:10:00,0.9,-4.9,30.35,NW,314,0.0,1.0,76,0.00,,,0.00,Wunderground v.1.15,2013-01-13 06:10:00,
2013-01-12 23:15:00,1.0,-4.5,30.35,NW,314,0.0,1.0,77,0.00,,,0.00,Wunderground v.1.15,2013-01-13 06:15:00,
2013-01-12 23:20:00,0.8,-5.0,30.35,NW,314,0.0,0.0,76,0.00,,,0.00,Wunderground v.1.15,2013-01-13 06:20:00,
2013-01-12 23:26:00,0.8,-4.7,30.35,NW,314,0.0,0.0,77,0.00,,,0.00,Wunderground v.1.15,2013-01-13 06:26:00,
2013-01-12 23:31:00,0.7,-4.8,30.36,NW,314,0.0,0.0,77,0.00,,,0.00,Wunderground v.1.15,2013-01-13 06:31:00,
2013-01-12 23:36:00,1.0,-4.3,30.36,NW,314,1.0,2.0,78,0.00,,,0.00,Wunderground v.1.15,2013-01-13 06:36:00,
2013-01-12 23:41:00,0.9,-4.4,30.36,NW,314,0.0,0.0,78,0.00,,,0.00,Wunderground v.1.15,2013-01-13 06:41:00,
2013-01-12 23:46:00,0.9,-4.4,30.36,NW,314,0.0,0.0,78,0.00,,,0.00,Wunderground v.1.15,2013-01-13 06:46:00,
2013-01-12 23:52:00,0.9,-4.4,30.36,NW,314,0.0,0.0,78,0.00,,,0.00,Wunderground v.1.15,2013-01-13 06:52:00,
2013-01-12 23:57:00,1.0,-4.0,30.36,NW,314,0.0,2.0,79,0.00,,,0.00,Wunderground v.1.15,2013-01-13 06:57:00,